Location: Newark
(44.1667°N, 8.2500°E)
Time: 21:26:22
(UTC+00:00)

S-56A Canister/Altair - Pass Details

Date: 12 December 2019
Orbit: 634 x 2498 km, 38.9° (Epoch: 28 January)

Event Time Altitude Azimuth Distance (km) Brightness Sun altitude
Rises 10:51:04 0° 256° (WSW) 5,831 12.1 22.4°
Reaches altitude 10° 10:54:40 10° 254° (WSW) 4,965 11.8 22.5°
Maximum altitude 11:09:24 71° 175° (S) 2,589 10.9 22.7°
Drops below altitude 10° 11:23:20 10° 95° (E) 4,722 11.7 22.8°
Sets 11:26:40 0° 94° (E) 5,542 11.9 22.7°
